This demonstration page uses our WeatherBlox Daily Observations layout. Learn more.

Left ArrowRight Arrow

34.16533, -84.80231

Hourly Observations for August 15, 2019

Temp ( °F °C ) Dew Point ( °F °C ) Humidity (%) Winds ( mph kmh ) Pressure ( in mb ) Visibility ( mi km ) Precip ( " mm )
12:53 am 00:53 Clear 72 22.2 70 21.1 94 94 Calm 29.94 1014 8 13 0.00 0.00
1:12 am 01:12 Partly Cloudy with Mist and Fog 73 22.8 71 21.7 94 94 Calm 29.95 1014 6 10 0.00 0.00
1:20 am 01:20 Mostly Cloudy 72 22.2 70 21.1 94 94 Calm 29.96 1014 7 11 0.00 0.00
1:48 am 01:48 Cloudy with Mist and Fog 73 23 72 22 94 94 Calm 29.93 1014 2 3 0.00 0.00
1:53 am 01:53 Cloudy with Mist and Fog 73 22.8 71 21.7 94 94 Calm 29.92 1013 1 2 0.00 0.00
2:01 am 02:01 Cloudy with Fog 73 22.8 71 21.7 94 94 Calm 29.94 1014 1 1 0.00 0.00
2:23 am 02:23 Mostly Cloudy with Fog 73 22.8 72 22.2 96 96 Calm 29.94 1014 0 0 0.00 0.00
2:46 am 02:46 Mostly Cloudy with Fog 73 22.8 72 22.2 96 96 Calm 29.93 1013 1 1 0.00 0.00
2:53 am 02:53 Mostly Cloudy with Fog 73 22.8 72 22.2 96 96 Calm 29.91 1013 0 0 0.00 0.00
3:32 am 03:32 Mostly Cloudy with Mist and Fog 73 22.8 72 22.2 96 96 Calm 29.93 1013 1 1 0.00 0.00
3:42 am 03:42 Mostly Cloudy with Mist and Fog 73 22.8 71 21.7 94 94 Calm 29.92 1013 1 2 0.00 0.00
3:53 am 03:53 Mostly Cloudy with Mist and Fog 73 22.8 71 21.7 94 94 Calm 29.90 1012 1 2 0.00 0.00
4:14 am 04:14 Cloudy with Mist and Fog 73 22.8 71 21.7 94 94 Calm 29.92 1013 3 5 0.00 0.00
4:39 am 04:39 Partly Cloudy 72 22.2 71 21.7 97 97 Calm 29.92 1013 8 13 0.00 0.00
4:53 am 04:53 Clear 72 22.2 70 21.1 94 94 Calm 29.90 1013 8 13 0.00 0.00
5:53 am 05:53 Clear 72 22.2 70 21.1 94 94 Calm 29.93 1013 9 14 0.00 0.00
6:53 am 06:53 Clear 72 22.2 69 20.6 91 91 Calm 29.93 1014 9 14 0.00 0.00
7:53 am 07:53 Sunny 72 22.2 70 21.1 94 94 Calm 29.96 1015 9 14 0.00 0.00
8:53 am 08:53 Sunny 76 24.4 71 21.7 85 85 Calm 29.97 1015 10 16 0.00 0.00
9:53 am 09:53 Sunny 81 27.2 71 21.7 72 72 N 3 6 29.97 1015 10 16 0.00 0.00
10:53 am 10:53 Sunny 84 28.9 71 21.7 65 65 N 3 6 29.98 1015 10 16 0.00 0.00
11:53 am 11:53 Sunny 88 31.1 70 21.1 55 55 VRB 3 6 29.97 1015 10 16 0.00 0.00
12:53 pm 12:53 Partly Cloudy 90 32.2 70 21.1 52 52 undefined N/A 29.96 1015 10 16 0.00 0.00
2:53 pm 14:53 Sunny 92 33.3 65 18.3 41 41 VRB 5 7 29.92 1013 10 16 0.00 0.00
3:53 pm 15:53 Sunny 93 33.9 62 16.7 36 36 VRB 5 7 29.90 1013 10 16 0.00 0.00
4:53 pm 16:53 Sunny 94 34.4 63 17.2 36 36 undefined N/A 29.89 1012 10 16 0.00 0.00
5:53 pm 17:53 Sunny 93 33.9 62 16.7 36 36 VRB 5 7 29.87 1012 10 16 0.00 0.00
6:53 pm 18:53 Sunny 91 32.8 61 16.1 37 37 VRB 5 7 29.88 1012 10 16 0.00 0.00
7:53 pm 19:53 Sunny 86 30 64 17.8 48 48 Calm 29.90 1013 10 16 0.00 0.00
8:53 pm 20:53 Mostly Clear 76 24.4 68 20 77 77 Calm 29.92 1013 10 16 0.00 0.00
9:53 pm 21:53 Clear 73 22.8 67 19.4 81 81 Calm 29.95 1014 10 16 0.00 0.00
10:53 pm 22:53 Clear 71 21.7 66 18.9 84 84 Calm 29.96 1015 10 16 0.00 0.00
11:53 pm 23:53 Clear 72 22.2 66 18.9 82 82 Calm 29.95 1014 10 16 0.00 0.00

Powered by AerisWeather